Regional Weather Roundup
Issued by NWS Bismarck, ND

Home | Current Version | Previous Version | Text Only | Print | Product List | Glossary On
Versions: 1 2 3 4 5 6 7 8 9 10 11 12 13 14 15 16 17 18 19 20 21 22 23 24 25 26 27 28 29 30 31 32 33 34 35 36 37 38 39 40 41 42 43 44 45 46 47 48 49 50
000
ASUS43 KBIS 292310
RWRBIS

NWR BROADCAST TEXT
NATIONAL WEATHER SERVICE BISMARCK ND
600 PM CDT SUN MAY 29 2016

NOTE: "FAIR" INDICATES FEW OR NO CLOUDS BELOW 12,000 FEET WITH NO
SIGNIFICANT WEATHER AND/OR OBSTRUCTIONS TO VISIBILITY.


CITY           SKY/WX    TMP DP  RH WIND       PRES   REMARKS
WILLISTON      SUNNY     78  33  19 W14       29.93F
MINOT          MOSUNNY   78  38  23 W8        29.93F
MINOT AFB      MOSUNNY   74  38  27 W13       29.91F
BISMARCK       MOSUNNY   80  45  28 W6        29.94F
DICKINSON      SUNNY     77  32  19 W10       29.93F
GARRISON         N/A     75  40  28 VRB3G22   29.94F
HETTINGER ARPT PTSUNNY   74  45  35 SE3       29.97F
JAMESTOWN      MOSUNNY   75  44  33 NW13G21   29.94F
BEACH          FAIR      75  37  25 W10G16    29.98F
CARRINGTON     FAIR      75  36  23 W13G25    29.96F
HAZEN          FAIR      75  41  29 NW9       29.95F
LINTON         FAIR      75  54  46 SW10        N/A
MANDAN         FAIR      75  43  31 W6        29.95F
OAKES            N/A    N/A N/A N/A MISG        N/A
RUGBY          FAIR      73  37  27 W12G21    29.93F
STANLEY        FAIR      72  39  30 W16G23    29.97S
WATFORD CITY   FAIR      75  36  23 W7        29.94F
$$

CITY           SKY/WX    TMP DP  RH WIND       PRES   REMARKS
GRAND FORKS    MOSUNNY   73  49  42 NW8       29.90F
GRAND FORKS AF SUNNY     76  43  31 NW13G21   29.91F
DEVILS LAKE    MOSUNNY   74  40  29 W16       29.94F
FARGO          SUNNY     79  43  27 NW13      29.92F
CAVALIER       FAIR      72  52  49 NW9       29.90S
GRAFTON        FAIR      73  50  43 CALM      29.92F
GWINNER        FAIR      77  45  31 W13G23    29.95F
LANGDON        FAIR      72  45  37 NW13G21   29.92F
ROLLA          FAIR      72  34  25 W15       29.94S
WALHALLA       FAIR      72  68  88 W10G16    29.90F
$$

CITY           SKY/WX    TMP DP  RH WIND       PRES   REMARKS
ABERDEEN       SUNNY     80  44  27 VRB6      29.97F
MOBRIDGE       CLOUDY    63  56  78 SE10      30.00S
BUFFALO          N/A     76  45  33 S10       29.91F
RAPID CITY     SUNNY     72  53  51 E10       29.98F
GLASGOW        SUNNY     75  36  24 SW15G22   29.92F
SIDNEY         SUNNY     79  37  22 W13       29.92F
WOLF POINT     SUNNY     78  37  22 W13       29.92F
GLENDIVE       SUNNY     73  43  33 SW10      29.97S
MILES CITY     MOSUNNY   77  41  27 VRB5      29.94F
BAKER          LGT RAIN  68  43  40 VRB3G26   29.99S
$$

CITY           SKY/WX    TMP DP  RH WIND       PRES   REMARKS
BILLINGS       MOSUNNY   76  35  22 VRB5      29.94F
GREAT FALLS    CLOUDY    70  34  26 SW17      29.94F
REGINA         MOSUNNY   70  39  32 W10G21    29.88F
ESTEVAN        MOSUNNY   73  39  29 SW16      29.91F
$$





USA.gov is the U.S. government's official web portal to all federal, state and local government web resources and services.